Location: Vesunti
(61.5000°N, 22.8333°E)
Time: 09:30:29
(UTC+00:00)

NOSS 7 (E) - Pass Details

Date: 17 February 2020
Orbit: 395 x 1777 km, 63.3° (Epoch: 27 March)

Event Time Altitude Azimuth Distance (km) Brightness Sun altitude
Exits shadow 04:21:30 26° 268° (W) 832 5.1 -13.2°
Maximum altitude 04:23:04 70° 348° (NNW) 438 4.2 -13.0°
Drops below altitude 10° 04:26:25 10° 73° (ENE) 1,577 8.4 -12.6°
Sets 04:28:42 0° 76° (ENE) 2,569 9.8 -12.4°
